Location: Elstree
(51.6403°N, 0.2969°W)
Time: 18:36:35
(UTC+00:00)

YAOGAN 1 - Pass Details

Date: 03 March 2021
Orbit: 618 x 620 km, 97.9° (Epoch: 16 April)

Event Time Altitude Azimuth Distance (km) Brightness Sun altitude
Rises 19:15:15 0° 187° (S) 2,886 6.0 -14.7°
Reaches altitude 10° 19:17:34 10° 196° (SSW) 1,986 5.2 -15.1°
Maximum altitude 19:21:33 36° 263° (W) 994 4.2 -15.7°
Drops below altitude 10° 19:25:35 10° 331° (NNW) 2,001 5.7 -16.3°
Sets 19:27:56 0° 340° (NNW) 2,912 6.5 -16.7°
